sat.trackr.live / text

‹ back to catalog

QIANFAN-189

NORAD 69407 · 2026-125G

PAYLOAD ACTIVE UNKNOWN

§ Identity

Operator
Country
PRC
Launch date
2026-06-05
Launch site
WSC
Launch vehicle
Mass (kg)
RCS (m²)

External: N2YO · Heavens-Above · Gunter

§ Orbital elements

Epoch: 2026-09-20T04:29:42.135936Z

Period
106.59 min
Inclination
88.9866°
Eccentricity
0.0002139
Mean motion
13.51019121 rev/d
Perigee alt
1,066.9 km
Apogee alt
1,070.1 km
Semi-major
7,446.6 km
B*
2.6153e-5
RAAN
270.3401°
Arg perigee
107.3824°
Mean anomaly
252.7561°
Rev number
1,476

§ Raw data

QIANFAN-1891 69407U 26125G   26263.18729324  .00000029  00000+0  26153-4 0  99982 69407  88.9866 270.3401 0002139 107.3824 252.7561 13.51019121 14760

JSON: /api/v1/satellites/69407 · /tle

For live sub-satellite position, see the globe view (requires WebGL).

§ Visibility from observer

Set your observer location to see the next 7 days of passes ≥ 10°. The values pass through the URL so the page stays shareable.

No JS? Fill the form by hand. The geolocation button needs JavaScript.